STARLINK-37690, 69825

Orbit data source: Space-Track

STARLINK-37690, 69825 is a payload satellite owned by SpaceX/Seattle (US) in LEO that was launched on Sun, 05 Jul 2026 UTC via an FALCON 9 launch vehicle from the Air Force Eastern Test Range (AFETR). Payload-class satellites include a variety of spacecraft equipped with specific instruments for various scientific and technological missions. These include communications satellites like Starlink; space stations such as the ISS; scientific satellites like the Hubble; Earth observation satellites from companies like Planet Labs, Umbra, and HawkEye 360; GPS; miniature CubeSats for education and research; and military/defense satellites.

Loading next visibility...
Identifier
69825, 2026-154G
Orbit
LEO
Country
Flag of USUS
Related business
Manufacturer
SpaceX/Seattle
Mission
Operational spacecraft
Bus & Motor
STARLINK V2MO, Unknown motor
Mass
575 kg wet, ~530 kg dry
Launch date (UTC)
2026-07-05 (2 months ago)
Launch vehicle
FALCON 9
Launch site
Air Force Eastern Test Range (AFETR)
Object type
Payload
Rocket body
Debris
Shape & HBR
BOX + PAN, 17.7 m
Radar Cross Section
Large (>1 m²)

Expand to show TLE details & history
Last TLE update: 21 hours ago

TLE from 21 hours ago
0 STARLINK-37690
1 69825U 26154G   26236.00860989  .00019722  00000-0  59324-3 0  9994
2 69825  53.1605 100.5160 0001731  60.8920 299.2256 15.34402597  9017
Epoch: 2026-08-24T00:12Z
TLE epoch observation values (Epoch: 2026-08-24T00:12:23.894Z)
Latitude
-0°
Longitude
125.11996°
Altitude
463.019 km
Speed
7.637 km/s
True Right ascension
06h 42m 03s
True Declination
0° 00' 00"
Sunlit
Object was in daylight at epoch
Visualization orbit readout
Latitude
Unknown
Longitude
Unknown
Altitude
Unknown
Speed
Unknown
Apparent Right ascension
Unknown
Apparent Declination
Unknown
Sunlit
N/A
Visualization observer readout
Local Sidereal Time
12:10:04
Azimuth
Unknown
Elevation
Unknown
Doppler factor
Unknown
Orbital elements
Apogee altitude
464.137 km
Perigee altitude
461.768 km
Semi-major axis
6,841.089 km
Eccentricity
0.00017
Inclination
53.1605°
RAAN
100.516°
Arg. of periapsis
60.892°
True anomaly
299.20829°
Mean anomaly
299.2256°
Eccentric anomaly
299.21694°
Mean motion
3.83579 °/min
Orbital period
93.85 mins
BSTAR
0.00059324
Loading maneuver chart data...
Computing Atmospheric mass density...
Loading historical data...
Loading historical data...
Loading historical data...
Loading historical data...
Loading historical data...
Loading historical data...
Loading historical data...

Documentation

Showing up to 5 results
|